Regional Weather Roundup
Issued by NWS

Home | Current Version | Previous Version | Text Only | Print | Product List | Glossary On
Versions: 1 2 3 4 5 6 7 8 9 10 11 12 13 14 15 16 17 18 19 20 21 22 23 24 25 26 27 28 29 30 31 32 33 34 35 36 37 38 39 40 41 42 43 44 45 46 47 48 49 50
000
ASUS46 KSTO 260715
RWRCA

NORTHERN AND CENTRAL CA REGIONAL WEATHER ROUNDUP
NATIONAL WEATHER SERVICE SACRAMENTO CA
1200 AM PDT MON SEP 26 2016

NOTE: FAIR INDICATES FEW OR NO CLOUDS BELOW 12,000 FEET WITH NO
SIGNIFICANT WEATHER AND/OR OBSTRUCTIONS TO VISIBILITY.

CAZ001-003-260800-
NORTHWEST AREA

CITY           SKY/WX    TMP DP  RH WIND       PRES   REMARKS
CRESCENT CITY  CLEAR     60  53  77 SE7       29.99S
UKIAH          CLEAR     60  42  51 CALM      30.01S
$$

CAZ006-505>513-260800-
BAY AREA

CITY           SKY/WX    TMP DP  RH WIND       PRES   REMARKS
SANTA ROSA     CLEAR     60  44  55 CALM      29.96S
SAN RAFAEL     N/A       81  MM  MM MISG
NAPA           CLEAR     64  41  42 N5        29.96S
CONCORD        CLEAR     71  42  35 S5        29.96S
OAKLAND CITY   N/A       69  MM  MM MISG
OAKLAND        CLEAR     68  58  70 SE3       29.97S
SAN FRAN CITY  N/A       71  MM  37 MISG
SAN FRAN ARPT  CLEAR     74  40  29 CALM      29.97S
LIVERMORE      CLEAR     69  44  40 E3        29.97F
HAYWARD        CLEAR     71  53  52 S6        29.97S
REDWOOD CITY   N/A       67  MM  51 MISG
MOFFETT ARPT   CLEAR     72  49  44 SE3       29.98S
SAN JOSE ARPT  CLEAR     73  48  41 SE3       29.98S
$$
CAZ034-037-514>518-260800-
CENTRAL COAST

CITY           SKY/WX    TMP DP  RH WIND       PRES   REMARKS
WATSONVILLE    CLEAR     64  48  56 NW5       29.99S
SALINAS        CLEAR     60  49  66 E5        29.99S
MONTEREY       CLEAR     67  44  43 CALM      29.99S
SAN LUIS OBISP CLEAR     64  40  41 SE5       29.97F
SANTA MARIA    CLEAR     61  38  42 SE5       29.98S
$$
CAZ015-016-260800-
NORTHERN SACRAMENTO VALLEY

CITY           SKY/WX    TMP DP  RH WIND       PRES   REMARKS
REDDING        CLEAR     78  41  26 NW6       29.99R
RED BLUFF      CLEAR     70  36  28 VRB3      29.99S
OROVILLE       CLEAR     70  46  42 E3        29.97S
$$
CAZ016>018-260800-
SOUTHERN SACRAMENTO VALLEY

CITY           SKY/WX    TMP DP  RH WIND       PRES   REMARKS
AUBURN         CLEAR     63  43  48 CALM      30.04S
BEALE AFB      CLEAR     69  42  37 E8        29.93S
LINCOLN        FAIR      61  45  55 E6        29.95S
MARYSVILLE     CLEAR     65  45  48 E3        29.95S
SAC INTL ARPT  CLEAR     68  50  52 E6        29.94R
MATHER AIRPORT NOT AVBL
DOWNTOWN SAC   N/A       71  MM  MM MISG
SAC EXEC ARPT  CLEAR     67  53  61 SE3       29.95R
VACAVILLE      CLEAR     66  41  40 CALM      29.94S
TRAVIS AFB     CLEAR     70  45  40 SW8       29.92S
$$
CAZ019>021-260800-
SAN JOAQUIN VALLEY

CITY           SKY/WX    TMP DP  RH WIND       PRES   REMARKS
STOCKTON       CLEAR     64  52  64 CALM      29.95S
MODESTO        CLEAR     67  57  70 E5        29.95F
MERCED         CLEAR     67  49  52 CALM      29.97S
LEMOORE        CLEAR     68  38  33 W7        29.98F
FRESNO         CLEAR     73  54  51 N3        29.99S
HANFORD        CLEAR     68  50  52 S3        29.99R
PORTERVILLE    CLEAR     69  40  34 E3        30.00S
BAKERSFIELD    CLEAR     75  39  27 CALM      29.99S
$$
CAZ011-012-071-260800-
NORTHERN MOUNTAINS

CITY           SKY/WX    TMP DP  RH WIND       PRES   REMARKS
YREKA          CLEAR     57  40  52 CALM      30.21S
MOUNT SHASTA   CLEAR     54  40  59 CALM      30.24F
ALTURAS        CLEAR     53  37  54 SE5       30.34S
$$
CAZ011-012-071-260800-
SIERRA NEVADA MTNS

CITY           SKY/WX    TMP DP  RH WIND       PRES   REMARKS
BLUE CANYON    CLEAR     70  19  14 E10G24    30.29S
TRUCKEE        CLEAR     41  21  45 CALM      30.41S
TAHOE VLY ARPT CLEAR     45  23  42 VRB3      30.42S
MAMMOTH LAKES  FAIR      47  18  32 N3        30.49S
$$



USA.gov is the U.S. government's official web portal to all federal, state and local government web resources and services.